XML Sitemap

This is a XML Sitemap which is supposed to be processed by search engines which follow the XML Sitemap standard like Ask.com, Bing, Google and Yahoo.
It was generated using the WordPress content management system and the Google Sitemap Generator Plugin by Arne Brachhold.
You can find more information about XML sitemaps on sitemaps.org and Google's list of sitemap programs.

URLPriorityChange frequencyLast modified (GMT)
https://100frames.com/34-homeschool-printable-monthly-calendar/50%Daily2019-03-08 17:45
https://100frames.com/34-daily-calendar-printable/50%Daily2019-03-08 17:40
https://100frames.com/30-monthly-printable-calendar-2019-word/50%Daily2019-03-08 17:35
https://100frames.com/30-december-calendar-2019-template/50%Daily2019-03-08 17:30
https://100frames.com/31-august-calendar-template-excel/50%Daily2019-03-08 17:25
https://100frames.com/34-print-august-calendar-2019/50%Daily2019-03-08 17:20
https://100frames.com/24-free-printable-may-2019-calendar-template/50%Daily2019-03-08 17:14
https://100frames.com/30-printable-march-calendar-word/50%Daily2019-03-08 17:10
https://100frames.com/35-free-printable-calendars-2019-december/50%Daily2019-03-08 17:05
https://100frames.com/32-free-printable-calendar-june-2019-landscape/50%Daily2019-03-08 17:00
https://100frames.com/35-june-and-july-2019-calendars/50%Daily2019-03-08 16:55
https://100frames.com/33-printable-to-do-calendar/50%Daily2019-03-08 16:50
https://100frames.com/19-desk-calendar-refill-2019/50%Daily2019-03-08 16:44
https://100frames.com/19-printable-calendar-july-aug-sept-2019/50%Daily2019-03-08 16:40
https://100frames.com/35-2019-calendar-uk-2019/50%Daily2019-03-08 16:36
https://100frames.com/34-december-2019-printable-calendar-landscape/50%Daily2019-03-08 16:31
https://100frames.com/33-march-2019-calendar-april-2019-calendar/50%Daily2019-03-08 16:25
https://100frames.com/26-adp-biweekly-payroll-calendar-2019-2020/50%Daily2019-03-08 16:20
https://100frames.com/30-buddhist-calendar-2019/50%Daily2019-03-08 16:16
https://100frames.com/31-printable-calendar-august-2019-with-holidays/50%Daily2019-03-08 16:10
https://100frames.com/32-free-printable-calendars-july-2019-thru-june/50%Daily2019-03-08 16:05
https://100frames.com/32-calendars-for-classrooms-printable/50%Daily2019-03-08 16:00
https://100frames.com/30-yoga-dogs-calendar-2019-2020/50%Daily2019-03-08 15:57
https://100frames.com/33-100-years-calendar/50%Daily2019-03-08 15:56
https://100frames.com/32-free-printable-school-calendar/50%Daily2019-03-08 15:54
https://100frames.com/22-manchester-united-calendar/50%Daily2019-03-08 15:51
https://100frames.com/31-1st-quarter-calendar-2019-printable-free/50%Daily2019-03-08 15:50
https://100frames.com/30-personalized-advent-calendar/50%Daily2019-03-08 15:49
https://100frames.com/32-daily-picture-calendar-tasks-printable-dor-sped/50%Daily2019-03-08 15:47
https://100frames.com/31-fill-in-calendar-2019-2020/50%Daily2019-03-08 15:45
https://100frames.com/31-calendar-empty-printable/50%Daily2019-03-08 15:45
https://100frames.com/35-calendario-2019-para-imprimir/50%Daily2019-03-08 15:43
https://100frames.com/34-free-printable-calendars-2019-with-us-holidays/50%Daily2019-03-08 15:41
https://100frames.com/34-february-calendar/50%Daily2019-03-08 15:40
https://100frames.com/31-el-corazon-calendar/50%Daily2019-03-08 15:38
https://100frames.com/31-printable-one-week-calendar/50%Daily2019-03-08 15:35
https://100frames.com/35-torah-portion-calendar-2019/50%Daily2019-03-08 15:36
https://100frames.com/31-august-printable-calendar-2019-canada/50%Daily2019-03-08 15:32
https://100frames.com/31-printable-calendar-2019-january-february-march/50%Daily2019-03-08 15:31
https://100frames.com/31-free-printable-3-month-calendar-one-page/50%Daily2019-03-08 15:29
https://100frames.com/35-printable-may-blank-calendar/50%Daily2019-03-08 15:26
https://100frames.com/30-blank-january-calendar-2019/50%Daily2019-03-08 15:25
https://100frames.com/22-september-printable-calendar-pdf/50%Daily2019-03-08 15:23
https://100frames.com/35-december-desk-calendar-printable/50%Daily2019-03-08 15:20
https://100frames.com/31-printable-calendar-june-july-august-september-2019/50%Daily2019-03-08 15:21
https://100frames.com/33-calendar-with-ical-import-an-printable-month-view/50%Daily2019-03-08 15:18
https://100frames.com/32-calendar-stickers-printable-hockey-practice/50%Daily2019-03-08 15:15
https://100frames.com/34-november-calendar-template/50%Daily2019-03-08 15:15
https://100frames.com/31-kalender-april-2019/50%Daily2019-03-08 15:13
https://100frames.com/34-edit-and-printable-calendars-2019/50%Daily2019-03-08 15:11
https://100frames.com/24-print-a-calendar-february-2019/50%Daily2019-03-08 15:10
https://100frames.com/32-free-large-box-printable-calendar/50%Daily2019-03-08 15:08
https://100frames.com/30-when-did-time-change-start/50%Daily2019-03-08 15:05
https://100frames.com/31-6-month-view-printable-calendar/50%Daily2019-03-08 15:05
https://100frames.com/27-free-printable-calendar-2019-year/50%Daily2019-03-08 15:02
https://100frames.com/30-printable-calendar-july-2019-june-2019/50%Daily2019-03-08 15:00
https://100frames.com/35-printable-july-2002-calendar/50%Daily2019-03-08 15:00
https://100frames.com/31-cy-fair-isd-calendar/50%Daily2019-03-08 14:57
https://100frames.com/30-free-printable-calendar-printfree/50%Daily2019-03-08 14:55
https://100frames.com/33-chicago-telugu-calendar-2019-2020/50%Daily2019-03-08 14:53
https://100frames.com/35-cute-september-calendar-printable-2019/50%Daily2019-03-08 14:51
https://100frames.com/32-boston-bruins-printable-calendar-schedule/50%Daily2019-03-08 14:49
https://100frames.com/32-armed-forces-day-2019/50%Daily2019-03-08 14:47
https://100frames.com/30-large-april-printable-calendar-2019/50%Daily2019-03-08 14:45
https://100frames.com/34-when-is-mardi-gras-next-year/50%Daily2019-03-08 14:46
https://100frames.com/35-free-printable-academic-event-calendar-year-2019-2019/50%Daily2019-03-08 14:43
https://100frames.com/30-jlc-master-calendar/50%Daily2019-03-08 14:40
https://100frames.com/33-october-to-december-2019-calendar/50%Daily2019-03-08 14:40
https://100frames.com/34-2019-calendar-monthly-planner-printable/50%Daily2019-03-08 14:38
https://100frames.com/34-special-days-in-august-2019/50%Daily2019-03-08 14:36
https://100frames.com/35-free-printable-calendars-2019-single-page/50%Daily2019-03-08 14:36
https://100frames.com/31-printable-schedule-calendar-with-times/50%Daily2019-03-08 14:33
https://100frames.com/33-december-2019-blank-calendar-template/50%Daily2019-03-08 14:31
https://100frames.com/21-may-2019-calendar-printable-fun/50%Daily2019-03-08 14:30
https://100frames.com/30-martin-luther-2019/50%Daily2019-03-08 14:29
https://100frames.com/33-botanical-paperworks-printable-calendar-2019/50%Daily2019-03-08 14:26
https://100frames.com/34-wincalendar-com-printable-calendar/50%Daily2019-03-08 14:25
https://100frames.com/33-2019-letter-carrier-calendar/50%Daily2019-03-08 14:24
https://100frames.com/34-june-2019-daily-calendar/50%Daily2019-03-08 14:21
https://100frames.com/34-starbucks-advent-calendar-2019/50%Daily2019-03-08 14:21
https://100frames.com/25-november-2019-calendar-to-print/50%Daily2019-03-08 14:18
https://100frames.com/31-july-2019-printable-calendar-full-page/50%Daily2019-03-08 14:16
https://100frames.com/31-4-week-printable-calendar/50%Daily2019-03-08 14:15
https://100frames.com/30-free-online-printable-interactive-calendar/50%Daily2019-03-08 14:14
https://100frames.com/12-free-printable-calendar-pinterest/50%Daily2019-03-08 14:12
https://100frames.com/33-calendar-template-for-word/50%Daily2019-03-08 14:11
https://100frames.com/32-printable-calendar-plain/50%Daily2019-03-08 14:10
https://100frames.com/34-printable-december-2019-calendar-uk/50%Daily2019-03-08 14:08
https://100frames.com/34-june-2019-calendar-printable-tumblr/50%Daily2019-03-08 14:06
https://100frames.com/35-printable-calendar-2019-november-pdf/50%Daily2019-03-08 14:05
https://100frames.com/31-month-of-june-calendar-printable-2019/50%Daily2019-03-08 14:03
https://100frames.com/34-july-events-calendar/50%Daily2019-03-08 14:01
https://100frames.com/30-outlook-calendar-tutorial/50%Daily2019-03-08 14:00
https://100frames.com/32-large-print-printable-calendar/50%Daily2019-03-08 13:59
https://100frames.com/28-depo-shot-calendar-2019-depo-provera-calendar-baskan-idai-co/50%Daily2019-03-08 13:57
https://100frames.com/35-bellingham-activities-calendar/50%Daily2019-03-08 13:56
https://100frames.com/31-december-2019-printable-calendar-waterproof/50%Daily2019-03-08 13:54
https://100frames.com/35-printable-calendar-online-2019/50%Daily2019-03-08 13:51
https://100frames.com/30-free-calendar-printables-for-2019/50%Daily2019-03-08 13:50
https://100frames.com/35-2019-november-and-december-calendar/50%Daily2019-03-08 13:48
https://100frames.com/35-disney-world-countdown-calendar-printable/50%Daily2019-03-08 13:46
https://100frames.com/30-august-2019-calendar-printable-large/50%Daily2019-03-08 13:45
https://100frames.com/31-january-2019-printable-calendar-color/50%Daily2019-03-08 13:43
https://100frames.com/35-chinese-2019-calendar/50%Daily2019-03-08 13:41
https://100frames.com/30-printable-january/50%Daily2019-03-08 13:40
https://100frames.com/30-teacher-resources-calendar-printables/50%Daily2019-03-08 13:38
https://100frames.com/31-2019-moon-calendar-printable/50%Daily2019-03-08 13:36
https://100frames.com/35-f1-2019-calendar-download/50%Daily2019-03-08 13:35
https://100frames.com/32-calendar-2019-printable-free-october/50%Daily2019-03-08 13:33
https://100frames.com/30-free-2019-monthly-printable-calendar/50%Daily2019-03-08 13:31
https://100frames.com/32-calendar-bulletin-board/50%Daily2019-03-08 13:30
https://100frames.com/30-printable-2019-calendar-on-1-page/50%Daily2019-03-08 13:29
https://100frames.com/35-february-2019-printable-calendar-with-holidays/50%Daily2019-03-08 13:26
https://100frames.com/31-sync-calendar-iphone/50%Daily2019-03-08 13:25
https://100frames.com/32-free-printable-2019-calendar-with-holidays-and-moon-phases/50%Daily2019-03-08 13:23
https://100frames.com/30-templates-calendarbuzz/50%Daily2019-03-08 13:21
https://100frames.com/34-free-printable-calendar-no-download/50%Daily2019-03-08 13:20
https://100frames.com/33-july-calendar-template-for-2019/50%Daily2019-03-08 13:18
https://100frames.com/33-grayson-county-school-calendar/50%Daily2019-03-08 13:16
https://100frames.com/31-fun-calendar-template/50%Daily2019-03-08 13:15
https://100frames.com/33-printable-calendar-free-cute/50%Daily2019-03-08 13:14
https://100frames.com/32-printable-blank-march-2019-calendars/50%Daily2019-03-08 13:12
https://100frames.com/30-christmas-2019-countdown-calendar-printable/50%Daily2019-03-08 13:10
https://100frames.com/17-printable-2019-calendar-august/50%Daily2019-03-08 13:09
https://100frames.com/33-october-printable-calendar-2019-imom/50%Daily2019-03-08 13:08
https://100frames.com/31-printable-teachers-calendars/50%Daily2019-03-08 13:06
https://100frames.com/31-free-printable-employee-calendar/50%Daily2019-03-08 13:05
https://100frames.com/30-printable-advent-calendar-boxes/50%Daily2019-03-08 13:03
https://100frames.com/34-2019-calendars-printable-with-pictures/50%Daily2019-03-08 13:02
https://100frames.com/34-printable-calendar-excel/50%Daily2019-03-08 13:01
https://100frames.com/30-template-sample-download-film-jav/50%Daily2019-03-08 12:58
https://100frames.com/30-august-calendar-events-2019/50%Daily2019-03-08 12:57
https://100frames.com/32-how-to-make-a-printable-weekly-calendar/50%Daily2019-03-08 12:55
https://100frames.com/35-custom-date-printable-calendar/50%Daily2019-03-08 12:55
https://100frames.com/31-august-2019-holidays/50%Daily2019-03-08 12:52
https://100frames.com/33-printable-calendar-planner-pages/50%Daily2019-03-08 12:50
https://100frames.com/33-printable-may-calendar-pieces/50%Daily2019-03-08 12:50
https://100frames.com/30-calendar-2019-ontario-printable/50%Daily2019-03-08 12:47
https://100frames.com/30-printable-calendar-with-holidays-and-moon-phases/50%Daily2019-03-08 12:45
https://100frames.com/31-august-calendar-printable-landscape/50%Daily2019-03-08 12:45
https://100frames.com/30-toyota-center-calendar/50%Daily2019-03-08 12:43
https://100frames.com/32-blank-december-calendar-free/50%Daily2019-03-08 12:41
https://100frames.com/35-hijri-and-gregorian-calendar-2019-printable/50%Daily2019-03-08 12:41
https://100frames.com/33-july-2019-calendar-printable-and-editable/50%Daily2019-03-08 12:39
https://100frames.com/35-ocps-calendar-2019-20/50%Daily2019-03-08 12:37
https://100frames.com/35-mount-vernon-school-calendar/50%Daily2019-03-08 12:36
https://100frames.com/31-march-calendar-printable-template/50%Daily2019-03-08 12:35
https://100frames.com/35-june-2019-printable-calendar-pinterest/50%Daily2019-03-08 12:32
https://100frames.com/31-july-2019-weekly-calendar/50%Daily2019-03-08 12:30
https://100frames.com/33-printable-annual-calendar-2019-uk/50%Daily2019-03-08 12:30
https://100frames.com/30-printable-mini-desk-calendar-2019-you-can-fold-and-stand/50%Daily2019-03-08 12:28
https://100frames.com/34-basic-printable-monthly-calendar-2019/50%Daily2019-03-08 12:26
https://100frames.com/31-blank-march-calendar-kindergarten/50%Daily2019-03-08 12:25
https://100frames.com/25-january-2019-free-printable-calendar/50%Daily2019-03-08 12:24
https://100frames.com/32-tica-org-show-calendar/50%Daily2019-03-08 12:22
https://100frames.com/26-august-2019-calendar-with-holidays/50%Daily2019-03-08 12:20
https://100frames.com/30-family-birthday-calendar-printable/50%Daily2019-03-08 12:18
https://100frames.com/32-full-moon-calendar/50%Daily2019-03-08 12:16
https://100frames.com/35-month-at-a-glance-printable-blank-calendar/50%Daily2019-03-08 12:15
https://100frames.com/33-printable-coloring-calendar-april-2019/50%Daily2019-03-08 12:14
https://100frames.com/31-free-printable-basketball-calendars/50%Daily2019-03-08 12:12